Location: Unspecified
(44.4377°N, 88.0525°W)
Time: 21:34:34
(UTC-06:00)

CZ-3 Stage 3 - Visible Passes

Search period start: 15 December 2017 00:00
Search period end: 25 December 2017 00:00
Orbit: 418 x 34779 km, 31.0° (Epoch: 15 December)

Date Brightness Start Highest point End Pass type
(mag) Time Alt. Az. Time Alt. Az. Time Alt. Az.
15 Dec 6.1 05:09:23 10° SW 05:20:49 21° S 06:26:13 10° SSE visible
16 Dec 6.4 01:40:58 12° SE 01:40:58 12° SE 01:42:46 10° SE visible
18 Dec 6.2 05:00:26 10° SW 05:11:44 20° S 06:09:55 10° SSE visible
19 Dec 6.6 01:32:14 11° SE 01:32:14 11° SE 01:33:02 10° SE visible
21 Dec 6.3 04:51:42 10° SW 05:02:38 19° S 05:54:17 10° SSE visible
24 Dec 6.4 04:42:58 11° SW 04:53:32 18° S 05:39:11 10° SSE visible
